Nur fliegen ist schöner ....

Willkommen beim Flugservice Bautzen GmbH

Wir sind eine nach europäischen Richtlinien zugelassene Flugschule und lizenziertes Luftfahrtunternehmen. Bei uns können sie nicht nur Rundflüge über die Oberlausitz oder Sachsen buchen, sondern in unserer Flugschule selber das Fliegen erlernen. Erfahrene Fluglehrer stehen ihnen dabei zur Seite.

Wir bieten außerdem Businessflüghe sowie Transportleistungen auf dem Luftweg, ganz nach ihren Wünschen, an. Schauen sie sich in Ruhe bei uns um und wenn sie Fragen haben oder weitere Informationen benötigen, scheuen sie sich nicht Kontakt mit uns aufzunehmen.

Rundflüge können sie ganz leicht auch online in unserem Shop buchen.

Terminkalender

Letzter Monat Dezember 2017 Nächster Monat
Mo Di Mi Do Fr Sa So
week 48 1 2 3
week 49 4 5 6 7 8 9 10
week 50 11 12 13 14 15 16 17
week 51 18 19 20 21 22 23 24
week 52 25 26 27 28 29 30 31

Flugwetterinfo

[Quelle: ADDS]
METAR
EDDC 150220Z 16006KT CAVOK 01/M01 Q0992 =
TAF
EDDC 142300Z 1500/1524 18005KT 9999 SCT035 BECMG 1503/1505 3500 -SNRA BKN011 PROB30 TEMPO 1504/1510 2500 -SN BKN007 BECMG 1510/1513 25006KT 9999 BKN020 BECMG 1520/1522 18005KT =
SR / SS: 06:59 / 14:54 UTC (EDAB Flugplatz Bautzen 2017-12-15)

Webcam EDAB

Webcam EDAB
Flugservice Bautzen GmbH, Kornmarkt 34, 02625 Bautzen  Telefon: +49 (3591) 211105, Telefax: +49 (3591) 274512, E-Mail:  flugservice(at)fsbautzen.de